GFSMA_con_mucape_000.txt.gz
CAPE
1126 1464 1502 1350 1225 1088 1009 1128 1089 972 800 654 760 812 913 974 479 369 1440 2363 2122 2201 2517 2287 2384 1725 1493 1209 952 694 897 804 603 603 644 906 988 818 851 389 461 734 770
1211 1473 1162 967 682 1096 897 965 891 769 773 725 681 601 622 742 836 419 1042 1349 2348 2062 2416 3013 2853 2716 1784 1504 1264 1108 1509 1929 1602 1182 1251 1063 1052 1320 1067 981 1121 1066 1238
1449 1343 1136 988 645 677 708 777 573 348 376 477 592 616 491 403 646 592 424 1144 1445 2601 2058 2489 3193 2935 2937 2072 1706 2119 2180 1957 1979 1763 1587 1548 1680 1825 1842 1827 1729 1511 1557
1305 1249 1207 910 806 779 683 614 545 535 421 366 352 308 341 187 389 557 573 606 1160 1511 1966 2092 2134 2982 3047 2409 2740 2511 2482 2455 2390 2169 1963 1856 1678 1569 1746 1879 1855 1606 1584
1114 1268 968 1014 1022 863 758 805 694 634 444 358 332 452 524 460 345 476 425 650 663 1023 1143 1651 1727 1827 2565 2352 2989 3098 2884 2520 2388 2475 2458 2322 2174 2040 1796 1530 1393 1364 1424
1142 1278 1050 962 924 951 876 774 653 417 499 395 309 576 442 382 231 272 298 280 411 723 1164 1240 1195 1344 1990 2298 2695 3143 3158 2854 2590 2618 2465 2296 2136 2056 1836 1763 1546 1568 1539
1086 1096 1042 940 949 853 782 792 759 792 627 356 494 246 186 104 95 78 233 325 354 514 787 963 1122 1000 1364 1639 1679 2183 3027 3275 2899 2665 2776 2311 2117 1989 1943 1802 1610 1745 1757
1043 965 1145 1115 788 584 514 395 342 488 428 575 491 248 49 2 33 0 44 108 334 477 570 645 667 1033 834 953 1146 1554 1694 2509 2980 2950 2696 2564 2311 2071 1881 1679 1420 1437 1480
721 274 263 179 193 326 237 386 416 503 411 452 417 249 94 29 19 0 5 18 97 184 196 209 237 397 703 718 1103 1225 1704 1163 1714 2842 2857 2567 2265 2086 1980 1706 1421 1185 1090
0 1 23 193 313 152 243 309 548 496 411 290 284 247 188 132 92 32 0 0 0 0 6 58 243 281 410 482 497 624 1245 1239 1345 1707 2619 2886 2482 2298 2103 1852 1560 1244 1033
0 0 168 284 130 13 28 298 115 350 326 410 218 156 43 11 23 0 0 0 0 0 7 44 51 159 181 127 128 37 487 952 1063 1409 1609 2242 2515 2856 2680 2440 1990 1620 1388
19 47 86 0 0 0 12 56 182 193 148 228 148 25 0 0 0 0 0 0 0 0 0 0 4 30 202 294 295 311 563 402 570 776 993 1300 1619 2007 2986 2956 2648 2196 1909
6 11 0 0 0 0 0 84 130 10 80 107 0 0 0 0 4 0 0 0 2 0 0 0 0 3 11 189 447 755 717 539 177 159 241 478 632 1164 1539 2549 2848 2784 2614
0 0 0 0 0 0 19 44 121 1 131 169 30 42 34 17 1 0 0 0 0 0 0 0 0 0 0 0 0 204 562 612 404 163 13 24 9 392 735 994 1728 2156 2156
0 0 0 0 0 15 0 41 65 223 100 66 52 124 114 55 2 0 0 0 0 0 0 0 0 0 0 0 0 0 26 301 263 156 36 17 5 38 457 672 829 1134 1464
0 0 0 0 0 0 0 0 17 52 0 34 88 121 122 112 46 0 0 0 0 0 1 0 0 0 0 0 0 0 5 122 224 171 21 0 1 27 238 370 584 768 831
0 72 121 79 12 0 33 151 139 192 101 120 167 134 116 106 72 39 0 0 0 0 0 0 0 0 0 0 0 0 0 16 112 93 33 0 0 0 55 130 226 544 625
12 0 0 0 0 1 47 65 139 227 240 110 166 85 72 95 87 76 43 0 0 0 0 0 0 0 0 0 0 0 1 9 54 92 38 0 0 0 0 0 11 125 457
5 0 0 0 0 3 18 47 46 121 260 154 122 108 105 146 127 134 109 71 14 11 1 0 0 0 0 0 0 1 0 0 20 21 61 0 0 0 0 0 20 26 98
15 1 0 0 55 0 13 57 90 262 353 232 115 83 177 293 230 145 136 110 83 18 16 0 0 0 0 0 0 0 0 0 0 38 83 18 7 0 0 0 0 26 132
39 12 4 88 52 45 46 273 317 148 110 79 113 174 157 160 228 191 143 113 70 30 18 0 1 0 0 0 0 0 0 0 0 0 4 21 30 0 0 0 0 2 85
220 52 79 162 159 30 211 83 67 41 41 15 13 16 34 121 159 221 158 130 117 56 19 31 11 1 2 6 0 0 0 0 0 0 0 92 72 3 0 0 0 0 25
216 172 123 235 38 160 95 154 89 65 56 22 7 4 19 39 90 108 110 46 46 35 59 42 21 15 23 26 27 0 0 5 0 0 0 5 184 89 24 8 0 7 6
370 440 468 256 278 161 195 303 177 90 60 32 8 18 0 6 32 55 18 0 0 0 0 0 3 6 9 14 6 0 0 6 0 0 0 0 55 141 131 168 143 209 341
514 640 471 61 151 284 227 252 121 38 35 6 0 9 1 0 0 0 0 0 0 0 0 0 2 12 1 0 3 2 0 0 0 0 0 0 24 137 155 142 171 220 192
746 643 478 295 234 205 167 77 74 16 10 11 11 10 0 0 0 0 0 0 0 0 0 0 6 10 1 5 5 2 1 6 11 0 0 2 111 175 137 285 366 384 379

GFSMA_con_mucape_006.txt.gz
CAPE
905 770 656 800 810 716 743 756 844 768 517 502 517 526 511 543 628 600 614 769 2139 2123 1738 1815 1592 1874 1175 748 808 1173 873 708 660 684 716 500 746 719 748 404 359 504 745
1067 860 772 735 700 638 580 731 737 533 208 231 248 259 321 308 357 366 499 631 1140 2148 2407 1823 1808 1726 1816 1185 995 998 1025 1086 1121 979 1267 1545 1199 1158 1030 724 453 411 877
1232 1145 964 838 685 601 470 396 445 432 372 234 136 115 69 110 191 217 395 627 777 1065 1569 2360 2212 2146 1691 1855 1371 1387 1793 1577 1807 1520 1482 1478 1492 1545 1600 1433 1201 1250 1423
1372 1352 1027 659 606 544 532 528 493 353 265 149 123 139 95 90 133 152 236 362 636 744 1304 1560 2359 2133 1763 1721 1940 1918 1983 1843 1622 1789 1934 1732 1623 1710 1595 1519 1621 1642 1626
1061 908 821 700 633 659 655 523 386 349 297 224 203 298 186 197 187 180 185 204 214 469 568 832 1696 1957 1615 1489 1794 2019 1807 1945 2071 1927 1866 2196 2070 1918 1819 1701 1933 1987 1862
899 712 743 766 803 638 514 370 360 325 281 284 319 255 133 59 72 102 120 224 303 369 451 798 1476 1306 1485 1682 1744 1770 1902 1816 1763 1962 1932 2120 2174 2068 1903 1751 1704 1651 1787
893 846 783 636 468 466 318 359 319 280 216 247 217 129 44 17 9 0 31 154 0 36 430 928 1164 1358 1236 1189 1647 1858 1781 2001 2075 1844 1855 1822 1979 2234 2081 1802 1714 1692 1577
1001 894 539 338 490 477 182 108 131 143 219 301 171 14 17 44 95 16 25 16 0 0 7 110 331 363 548 898 989 1184 1631 1810 2015 2176 2043 1799 1815 1904 1992 1964 1795 1735 1649
916 659 446 434 427 64 46 33 54 144 245 256 217 152 5 4 15 31 19 0 0 0 0 0 8 44 186 372 343 461 623 1040 1187 1558 1831 1834 1733 1676 1709 1953 1800 1640 1475
911 607 24 30 8 8 62 26 156 234 202 61 128 175 99 174 39 9 0 0 0 0 0 0 0 0 30 62 15 106 273 462 486 607 917 1656 1518 1699 1803 1957 1989 1728 1524
1004 0 0 0 9 85 18 0 30 59 85 87 20 14 2 0 21 0 0 0 0 0 0 0 0 0 0 0 0 0 0 0 0 118 578 700 773 1692 1987 2056 2263 2096 1963
6 0 0 0 51 38 0 0 0 1 6 33 71 0 0 0 0 0 0 0 0 0 0 0 0 0 0 0 0 0 0 0 0 0 0 104 641 844 1049 2036 2040 2196 2369
0 0 0 0 11 0 0 0 0 0 0 0 4 0 0 0 0 0 0 0 1 0 0 0 0 0 0 0 0 0 0 0 0 0 0 0 51 365 788 1438 1816 1993 2088
0 0 11 1 0 0 0 0 0 0 0 0 17 0 0 0 0 0 0 0 0 0 0 0 0 0 0 0 0 0 0 0 0 0 0 0 0 8 159 384 878 1197 1391
0 0 0 0 0 0 0 0 0 0 0 0 0 0 0 38 65 19 0 0 0 0 0 0 0 0 0 0 0 0 0 0 0 0 0 0 0 1 7 15 52 165 626
0 0 0 0 0 0 0 0 0 0 0 0 0 0 5 50 80 49 16 0 0 0 0 0 0 0 0 0 0 0 0 0 0 0 0 0 0 0 5 7 0 18 23
0 0 0 0 0 0 0 0 0 0 0 0 23 42 37 48 59 69 51 30 18 0 0 0 0 0 0 0 0 0 0 0 0 0 0 0 0 0 0 2 5 0 0
0 0 0 0 0 0 0 0 0 0 0 0 38 44 61 50 36 50 62 56 41 29 42 0 0 0 0 0 0 0 0 0 0 0 0 0 0 0 0 0 0 0 0
0 0 0 0 0 0 0 0 0 0 0 0 27 40 50 58 27 6 0 20 59 66 74 45 0 0 0 0 0 0 0 0 0 0 0 0 0 0 0 0 0 0 0
0 0 0 0 0 0 0 0 0 0 0 0 24 49 29 16 5 5 0 0 25 29 49 37 4 0 1 0 0 0 0 0 0 0 0 0 0 0 0 0 0 0 0
0 2 0 0 0 0 0 0 0 0 0 32 38 19 0 0 22 27 16 31 0 17 37 19 1 0 0 0 0 0 0 0 0 0 0 0 1 5 12 1 0 0 0
141 38 23 1 1 0 0 0 0 5 26 33 10 0 0 2 6 2 23 63 88 82 91 38 0 1 0 1 0 0 3 3 4 3 12 0 0 0 16 4 0 25 0
363 113 43 12 5 13 19 12 23 22 18 19 18 0 5 0 12 3 0 4 34 53 93 178 3 5 8 0 7 13 10 9 11 0 1 0 0 0 14 6 0 1 1
104 64 86 97 37 94 139 113 144 66 45 32 25 15 11 4 5 0 0 6 11 17 6 0 0 0 1 6 12 7 12 0 13 8 0 0 0 0 0 14 0 1 3
250 147 153 156 119 152 195 243 85 98 30 26 24 0 0 1 1 0 0 0 0 0 0 0 0 0 0 0 0 0 0 0 17 0 0 0 0 0 0 0 13 0 3
444 237 256 134 160 206 273 124 122 38 38 0 0 0 0 0 0 0 0 0 0 0 0 0 0 0 0 0 0 0 22 13 0 0 0 0 2 4 0 0 0 0 4

GFSMA_con_mucape_009.txt.gz
CAPE
1938 1759 1572 1667 1769 1514 1492 1559 1638 1613 1401 929 964 947 826 922 985 857 1172 1096 1155 1865 1678 1815 1530 1503 1322 828 1341 1306 838 814 621 1146 876 1051 874 750 660 471 592 585 598
2806 2385 1700 1723 1511 1487 1286 1435 1470 1245 993 1000 795 727 613 474 683 787 602 1152 967 1363 1919 2045 1924 1777 1635 1571 983 857 1532 1621 1454 1015 1330 1480 1370 1239 842 628 675 459 777
2253 2204 2251 2124 1636 1391 1353 1217 1217 953 845 601 565 420 459 482 314 674 677 732 1025 1127 1362 1639 2469 2518 2060 1743 1808 1769 1789 1636 1878 1660 1581 1585 1545 1646 1505 1465 1526 1257 1221
2267 2332 2700 2268 1386 1427 1184 1271 1166 982 794 535 471 467 556 413 576 599 543 612 506 679 977 1321 1526 2479 2003 1347 1692 1702 1996 1847 1918 2105 1904 1828 1830 1817 1810 1705 1643 1655 1699
2141 2460 2453 1960 1526 1402 1527 1246 972 992 498 372 338 399 436 413 487 321 651 792 796 861 632 687 1056 1319 1647 1573 1788 1792 1938 1814 1705 1939 2069 2182 1874 1857 1822 1870 1798 1727 1837
1874 1787 1837 1727 1550 1482 1213 1003 1092 859 740 684 504 413 403 337 287 384 620 509 226 993 1285 1440 1429 1479 1374 1513 1710 1962 2078 1831 1864 1909 1833 1922 2145 2174 2076 1941 1874 1834 2045
1785 1798 2063 1766 1514 1192 1062 1123 807 700 407 648 682 140 254 285 276 250 366 161 0 51 308 770 1244 1301 1337 1164 1380 1402 1395 1919 1951 2022 1883 1745 1962 1954 2016 2008 1846 1855 1834
1962 1931 1796 1432 1237 917 1104 702 748 433 478 693 477 299 11 250 290 239 121 2 0 0 7 175 233 446 633 778 747 678 786 923 1350 1720 1948 1790 1675 1775 1793 1805 1874 1807 1791
1927 1798 1517 1168 1164 684 130 585 462 664 443 566 644 372 25 11 129 207 238 0 0 0 0 1 41 108 19 31 73 126 186 362 654 918 1100 1593 1900 1728 1683 1658 1701 1816 1776
1800 1655 1405 738 791 273 595 481 372 638 641 228 349 532 419 422 10 0 0 0 0 0 0 0 0 0 0 0 0 0 0 0 2 27 208 725 1001 1253 1863 1890 1699 1701 1840
1770 1250 748 522 528 466 704 321 631 471 415 276 249 242 211 107 136 0 0 0 0 0 0 0 0 0 0 0 0 0 0 0 0 0 0 0 60 520 1114 1341 1991 1939 1878
1089 632 301 383 623 662 536 237 384 397 374 447 440 217 0 0 0 0 0 1 0 0 0 0 0 0 0 0 0 0 0 0 0 0 0 0 0 0 185 812 1203 1716 2306
807 262 306 357 471 647 306 248 350 368 281 288 596 115 86 45 66 47 26 3 0 0 0 0 0 0 0 0 0 0 0 0 0 0 0 0 0 0 0 25 295 989 1395
637 265 314 359 530 173 86 220 219 223 261 217 480 496 114 140 230 222 119 44 4 0 0 0 0 0 0 0 0 0 0 0 0 0 0 0 0 0 0 0 1 125 458
244 256 293 396 178 0 52 271 63 214 316 385 336 543 412 161 228 267 291 117 47 19 11 0 0 0 0 0 0 0 0 0 0 0 0 0 0 0 0 0 0 2 20
230 293 326 182 50 4 18 264 91 83 195 186 214 443 511 266 333 498 335 199 78 50 17 10 7 0 0 0 0 0 0 0 0 0 0 0 0 0 0 0 0 0 3
275 308 329 123 81 48 65 168 226 97 100 226 482 529 567 637 373 413 370 247 155 113 112 0 8 22 0 43 35 54 29 0 0 0 0 0 0 0 0 0 0 0 0
210 205 242 194 147 103 145 270 228 0 153 306 311 526 539 398 605 576 300 371 351 238 142 134 153 51 106 112 119 178 68 0 0 0 0 0 0 0 0 0 0 0 0
168 78 174 228 187 199 360 438 327 109 232 334 380 479 467 606 622 305 287 174 141 500 191 136 98 46 57 118 139 183 105 28 2 0 0 0 0 0 0 0 0 0 0
336 215 153 277 272 324 290 169 19 155 291 289 399 485 556 511 409 242 184 249 220 195 151 149 96 66 69 244 135 113 51 22 12 1 0 0 0 0 0 0 0 0 0
57 61 125 134 217 158 30 46 125 277 493 497 458 669 586 359 87 45 52 85 198 190 107 96 90 82 73 75 124 79 46 23 76 18 10 5 4 4 0 1 4 0 0
2 11 1 87 253 65 0 0 36 360 549 634 617 584 426 22 1 0 0 34 77 144 159 699 191 142 230 149 123 31 11 3 3 8 22 22 15 6 4 11 3 0 0
109 0 0 24 421 380 8 0 0 216 495 532 604 529 227 68 24 55 4 0 15 4 44 200 142 158 128 81 26 13 10 17 15 21 40 25 22 28 8 1 0 0 0
222 12 43 227 643 455 67 23 35 181 415 547 474 325 212 172 127 9 26 48 78 79 83 37 28 17 6 1 6 18 9 0 2 16 111 74 37 7 0 0 0 0 0
167 176 312 185 294 310 28 27 79 112 200 368 470 180 63 60 0 0 0 6 59 57 5 0 0 0 0 0 0 0 0 21 12 34 11 1 0 0 0 0 0 0 0
38 115 199 417 368 929 84 126 111 133 108 145 184 30 0 0 0 0 0 0 37 49 4 0 0 0 1 1 0 12 1 15 29 11 0 0 0 0 0 0 0 3 28

GFSMA_con_mucape_015.txt.gz
CAPE
2271 1610 1494 1652 1953 1877 1673 1894 2159 1936 2025 1633 1509 986 739 421 356 260 534 2075 1490 1366 2010 1944 1993 1907 1951 1373 1831 1601 1523 913 597 690 920 541 771 855 1119 808 529 599 974
2386 2921 2808 1451 1467 2274 2171 2069 1991 2031 2309 1997 1286 955 205 138 44 55 94 1309 1995 1381 1886 2021 1998 1920 1916 1852 1565 1912 1805 1532 951 697 914 1288 1586 1325 995 628 428 532 863
1946 2351 2031 1616 2226 1913 2133 1855 1680 1817 1746 1385 233 75 9 28 24 121 128 79 1213 2104 2095 2074 2226 2418 2239 2028 1975 1766 2460 2428 2129 1918 1837 1880 1865 2006 1833 1572 1222 1197 1326
2338 2321 1806 1792 2055 2041 2054 2314 1622 1888 865 123 8 6 5 28 163 180 101 171 130 242 2075 2392 1733 2052 1927 1783 1959 2342 2109 2260 2624 2560 2381 2224 2086 2105 1949 1921 1957 1918 1666
2382 2488 2042 1782 1997 1725 2228 1746 1721 950 117 5 0 0 30 102 109 110 69 226 494 426 399 2297 2149 1641 1710 1833 1923 2070 2284 2169 2138 2165 2248 2452 2224 2161 2133 2104 2130 2122 2031
2147 2383 1702 1833 1915 2212 1868 2020 876 355 133 59 0 1 52 165 142 136 190 152 191 527 813 776 1526 1274 1519 1561 1817 2006 1978 2211 2215 1859 1817 1945 2157 2212 2254 2064 1921 1917 2050
2338 2033 2165 2289 2025 1739 1576 723 373 22 1 136 36 126 123 166 248 101 129 9 1 78 412 755 1561 1847 1726 1575 1548 1573 1509 1349 1993 2071 2093 1915 1802 2018 2071 2043 2035 2107 2172
2546 2035 2623 1661 2085 1151 1101 442 126 22 7 301 132 12 54 528 340 100 75 4 0 3 70 396 773 1321 1580 1494 858 436 532 734 1118 1259 1222 1517 1787 1961 1928 1881 1818 1854 1938
2041 2181 2104 2176 1786 993 87 320 181 86 44 82 187 100 71 186 130 288 116 3 0 0 0 0 47 9 134 233 570 15 45 133 232 264 360 583 842 1088 1459 1906 1895 1714 1722
1450 2181 1835 1206 1109 400 1059 321 90 235 172 69 11 27 163 148 133 190 69 3 0 0 0 0 0 0 0 0 0 0 0 0 0 0 0 0 19 164 413 804 1586 1717 1777
1216 1004 1030 1255 723 10 255 487 119 298 273 81 11 23 109 20 0 1 14 43 32 3 0 0 0 0 0 0 0 0 0 0 0 0 0 0 0 0 0 0 197 673 1638
1118 1109 1062 1065 403 396 463 353 244 191 246 298 203 73 9 11 23 18 13 30 36 31 23 4 6 0 0 0 0 0 0 0 0 0 0 0 0 0 0 0 0 3 170
815 2189 1719 1331 407 676 593 459 466 333 207 200 129 150 23 18 24 16 15 19 24 30 77 26 35 6 0 0 0 0 0 0 0 0 0 0 0 0 0 0 0 0 0
856 2807 1666 1157 463 619 653 628 268 132 508 92 50 72 26 26 27 43 47 41 69 70 275 559 217 59 10 1 6 0 0 10 0 0 0 0 0 0 0 0 0 0 0
703 1153 1645 1021 616 663 706 777 162 550 269 306 302 293 87 4 18 28 69 255 155 61 54 300 349 273 102 52 51 2 16 15 6 0 0 0 0 0 0 0 0 0 0
1931 2078 1412 960 705 710 637 581 634 372 330 204 27 124 187 41 22 40 169 208 243 108 67 90 90 238 351 59 103 86 50 95 29 3 0 0 0 0 0 0 0 0 0
2670 1907 1950 1123 668 926 373 429 512 293 409 545 298 95 156 390 66 29 42 46 29 27 32 20 26 137 934 675 487 379 146 312 84 44 35 0 0 0 0 0 0 0 0
2714 2356 2032 1410 1112 850 777 660 459 226 198 133 101 646 306 93 1474 1490 258 847 289 281 19 530 190 45 392 590 832 1060 163 52 77 29 33 4 0 0 0 0 0 0 0
3144 1741 1717 1115 1202 597 401 496 867 888 770 576 513 914 730 959 1423 574 1105 454 72 325 226 83 75 103 33 148 263 275 505 223 215 62 24 14 10 0 0 0 0 0 0
3034 1692 1906 1458 1008 351 426 276 586 597 945 776 857 960 859 1021 1427 1365 971 1371 1052 506 295 86 97 90 95 84 251 175 125 41 96 63 46 17 22 40 1 0 0 0 0
2711 1965 1760 1415 887 460 265 75 503 571 965 913 783 925 1014 1054 555 594 607 996 1387 408 131 99 107 70 121 164 165 164 99 83 62 198 124 95 65 59 99 89 35 8 1
2785 2092 1564 1118 460 209 65 96 533 597 754 1009 1098 1257 1357 796 418 168 153 92 50 173 528 172 89 103 338 207 144 150 88 30 19 150 89 21 47 207 315 403 143 10 0
2411 1792 1311 801 458 176 256 192 70 247 652 720 866 1444 1223 545 412 667 470 164 119 53 11 167 325 399 422 425 505 408 318 93 8 0 15 21 78 242 371 378 46 1 0
1829 1703 1316 946 591 553 510 345 228 79 247 303 784 1371 1556 1502 1155 722 722 254 435 751 420 112 300 387 478 365 122 65 76 27 31 26 201 156 187 154 107 395 16 0 0
1815 1270 1055 1192 894 861 811 471 171 22 110 297 530 1286 1518 1323 284 130 69 222 590 632 174 4 14 1 0 0 1 1 8 23 26 39 72 164 126 168 142 129 60 0 0
1552 1594 1255 1065 1026 776 471 233 11 330 729 579 627 1408 279 213 204 112 63 158 290 338 182 194 160 16 14 19 6 31 50 59 50 50 50 58 30 71 60 18 12 2 0

GFSMA_con_mucape_021.txt.gz
CAPE
889 680 1557 1121 1301 1128 1285 1083 1509 1153 1218 1282 1049 560 191 0 263 956 1063 2322 2071 2531 2311 2248 1744 1856 1951 1350 1706 1604 1222 851 1053 1286 1385 1161 1027 1149 1380 1083 1118 910 885
1083 1389 1383 1094 1449 1362 1744 1445 1109 1130 1204 1473 1392 1025 637 18 12 258 989 1393 2198 1938 2538 2358 2388 2015 1981 1890 1792 1831 1680 1271 1066 824 1612 1773 1565 1665 1435 1174 1051 770 977
1331 1554 1486 1146 1685 1472 1667 1599 1047 1188 1325 1253 1101 829 115 4 12 13 305 1128 1313 1808 2071 2807 2712 2473 2135 1715 1741 1867 2391 2316 1906 1533 1495 1640 1670 1717 1602 1728 1529 1267 1214
1775 1318 1759 1705 1270 1237 1031 992 895 918 872 399 0 0 1 10 26 22 13 235 963 1072 1874 2389 2263 2459 2182 2087 2086 1967 2049 2153 2260 2147 1832 1720 1735 2057 2086 2161 1868 1690 1704
1777 1381 1639 1532 1501 1284 1198 1092 752 554 47 0 0 0 3 75 23 54 37 19 167 856 1095 1970 2149 2091 1816 1688 1911 2033 2126 2045 2469 2184 2296 2299 2273 2188 2107 2098 2056 1990 1965
1861 1427 1324 1649 1287 1126 1084 639 499 328 10 26 0 2 4 14 10 122 59 26 63 896 1133 1067 1070 1145 1809 1825 2061 2085 1877 1802 1963 2068 2094 2124 2267 2330 2268 2229 2027 1922 1826
1735 1397 1307 1393 1616 1148 974 484 189 23 0 27 0 26 76 78 33 27 25 28 7 670 885 902 1033 979 1139 1395 1852 1778 1583 1422 1476 1743 1496 1327 1409 1667 1850 1975 1977 2033 2084
1787 1427 1199 1423 1387 1326 875 370 53 0 19 145 0 1 62 69 97 37 20 17 1 19 401 473 512 546 901 462 377 525 590 776 1215 1243 1222 1176 1101 1178 1346 1369 1253 1257 1622
1941 1617 1508 1414 1427 1104 759 479 6 34 9 154 0 9 91 54 104 44 38 10 0 0 0 0 0 337 582 18 3 0 0 0 104 262 373 480 543 540 516 647 990 1083 1165
1634 1594 1505 1427 1084 965 615 59 61 24 76 13 102 1 0 7 19 87 23 12 6 0 0 0 0 1 341 79 0 0 0 0 0 0 0 0 0 0 0 9 82 338 749
1740 1596 1601 1536 874 465 352 135 0 0 116 209 80 246 1 7 3 1 13 16 29 5 0 0 0 0 52 0 0 0 0 0 0 0 0 0 0 0 0 0 0 0 0
1353 1860 1597 1238 776 367 222 113 146 34 23 84 6 33 0 0 0 0 0 0 8 12 11 8 4 0 0 0 0 0 0 0 0 0 0 0 0 0 0 0 0 0 0
821 1491 1135 791 692 187 214 167 39 49 28 61 235 0 24 0 0 0 0 0 0 11 12 29 16 14 9 5 3 4 2 0 0 0 0 0 0 0 0 0 0 0 0
807 1111 1131 713 692 52 645 446 233 200 85 49 96 49 2 0 0 0 0 0 0 0 3 12 24 52 35 11 6 42 0 0 0 0 0 0 0 0 0 0 0 0 0
910 924 1196 737 597 121 189 519 217 53 294 86 11 35 12 0 0 0 20 0 0 0 0 4 10 26 19 20 1 4 0 0 1 13 0 0 0 3 1 0 0 0 0
1546 877 1164 839 566 272 193 482 325 260 127 212 156 91 36 31 40 0 21 0 0 0 0 0 0 0 0 10 71 5 2 37 35 5 1 0 0 0 0 13 4 0 0
1009 1101 1077 992 672 515 404 586 389 128 352 124 270 105 171 54 56 16 39 0 0 15 8 0 0 0 19 0 7 6 3 5 10 0 1 7 9 15 9 17 22 8 0
1413 1266 1057 1155 845 569 528 639 405 191 95 397 177 149 46 118 53 7 54 57 103 43 0 0 23 34 24 35 33 35 27 48 29 22 10 26 22 10 0 0 0 0 0
1741 1357 1409 1066 914 660 369 569 445 252 237 261 295 216 57 30 48 127 131 100 207 108 59 65 15 12 11 0 0 4 0 14 25 33 5 1 0 1 1 0 0 0 0
2115 1677 1256 1143 903 684 445 515 490 367 174 149 221 373 224 57 31 319 350 332 148 122 99 91 93 34 30 19 17 0 0 4 2 12 11 0 0 0 0 0 0 0 0
2887 2161 1674 1189 806 608 511 496 426 378 241 300 267 274 131 215 373 406 458 224 195 137 82 79 53 2 0 1 17 0 0 0 0 0 0 0 0 0 0 0 0 0 0
2939 2827 2387 1889 1412 1043 778 653 448 381 307 371 358 354 323 426 483 358 364 95 75 31 22 44 20 0 0 23 30 15 1 0 0 0 0 0 0 0 0 0 0 0 0
3122 3221 2944 2597 2122 1823 1576 1392 1232 849 395 377 368 458 504 464 198 164 91 92 58 12 28 38 17 5 0 3 69 69 39 14 6 0 0 0 0 0 0 0 0 0 3
3261 3390 3340 3146 2840 2458 2239 2087 1795 1194 660 374 585 714 577 302 177 95 91 68 53 59 67 83 51 1 43 110 104 64 42 26 8 0 0 0 0 0 0 0 0 3 3
3365 3424 3408 3293 3112 2775 2461 2198 1640 1148 1323 904 356 365 295 161 61 149 79 64 50 77 115 64 96 141 169 141 145 144 38 29 6 1 0 0 3 0 0 0 0 0 0
3542 3580 3452 3298 3455 2843 2288 1794 1107 811 682 777 517 158 267 154 40 135 130 81 93 128 136 76 78 76 45 25 26 36 34 19 26 7 0 6 10 0 0 0 0 0 0

GFSMA_con_mucape_024.txt.gz
CAPE
777 686 981 1027 988 899 1044 1022 1154 1023 1002 1291 926 440 143 513 863 714 253 1330 2252 2555 2084 1912 1724 1603 1477 1661 1720 1494 1177 836 878 853 1181 1259 798 813 685 741 759 812 865
762 714 1081 1103 1275 1269 1138 1181 1043 922 1208 1159 1381 1175 556 63 945 670 542 1461 2139 2405 2514 2615 1967 1835 2042 1579 1881 1859 1637 1176 1003 1367 1375 1691 1701 1070 815 1031 1167 1064 703
1021 1353 1284 873 1326 1275 1513 1104 862 717 934 508 334 176 89 11 43 457 695 853 1224 2083 2261 2549 2355 2050 1882 1654 1786 2106 2410 2244 1675 1324 1530 1468 1510 1327 1178 1120 1291 1141 1100
1056 1170 1223 1380 1136 1029 988 836 759 630 323 8 0 0 3 18 29 28 574 473 1012 856 1804 2282 2744 2487 1716 1960 1830 1804 2433 2292 2136 2089 1820 1402 1217 1403 1598 1756 1637 1815 1736
1411 1065 1177 1164 1248 1134 1075 897 655 311 51 1 0 0 13 41 33 25 28 147 667 775 711 1522 1940 2090 1767 1508 1504 1854 1617 1808 2215 2027 2120 2012 1892 1804 2070 1929 1979 1969 1799
1506 1200 1021 1237 1244 1116 977 610 314 286 2 0 0 0 14 16 28 41 48 119 341 541 904 843 857 1000 1475 1816 1770 1852 1851 1901 1993 1586 1954 2144 2168 1926 1940 1836 1824 1841 1871
1327 1149 889 1310 1115 969 707 311 134 5 0 6 0 0 39 24 40 50 38 83 419 719 907 751 903 981 1349 1393 1732 1625 1607 1344 1460 1407 1694 1496 1362 1489 1360 1514 1697 1817 2012
1429 1277 1164 1073 1217 1024 975 365 149 0 0 25 0 0 14 16 21 25 27 157 263 609 400 504 470 546 402 318 532 841 787 1077 1171 1150 1008 833 707 734 756 857 1102 1297 1464
1443 1496 1165 969 1072 1129 787 438 31 0 0 16 0 0 16 0 40 14 11 24 110 196 148 185 266 497 266 0 0 0 1 53 89 169 233 288 355 368 361 335 424 594 1004
1467 1396 1088 930 1013 1054 671 513 12 8 0 0 0 0 0 0 1 3 9 1 0 0 0 0 6 483 120 0 0 0 0 0 0 0 0 0 0 0 0 0 9 108 249
1437 1304 1122 961 921 789 628 206 14 15 9 1 9 11 3 0 0 0 0 0 0 0 0 0 0 158 134 9 0 0 0 0 0 0 0 0 0 0 0 0 0 0 0
1427 1277 1302 1275 992 532 331 41 7 4 53 28 25 70 0 0 0 0 0 0 0 0 0 0 0 0 73 30 0 0 0 0 0 0 0 0 0 0 0 0 0 0 0
1424 1556 1360 1256 942 645 313 34 30 30 10 52 3 9 16 1 0 0 0 0 0 0 0 0 0 0 0 0 0 3 34 0 0 0 0 0 0 0 0 0 0 0 0
1352 924 1392 1207 995 670 359 78 35 29 20 6 46 15 10 6 8 0 0 0 0 0 0 0 0 0 0 0 0 170 0 0 0 0 0 0 0 0 5 0 0 0 0
1114 937 1245 1113 799 508 224 128 110 89 81 19 12 44 15 8 2 3 16 0 0 0 0 0 0 0 0 0 0 45 0 0 17 6 0 0 0 0 15 26 39 37 13
1007 788 943 714 524 500 277 229 180 183 86 159 54 14 13 2 0 0 0 0 0 0 0 0 0 0 0 0 1 2 0 0 0 12 7 16 10 12 21 42 46 43 34
1157 805 751 598 533 490 380 328 317 264 214 33 140 80 30 17 9 19 8 1 9 10 4 26 2 0 0 0 0 13 2 0 1 1 12 24 18 18 28 22 18 21 29
1383 1203 959 764 675 602 521 380 353 346 292 75 26 172 170 41 80 38 8 24 8 2 8 10 30 28 26 30 2 13 10 0 0 16 12 23 13 0 0 0 0 0 0
1515 1433 1194 834 814 745 623 495 310 279 330 122 156 101 83 106 43 69 16 24 61 129 77 63 77 50 47 55 30 16 0 0 0 8 9 18 0 0 0 0 0 0 0
2038 1541 1463 1301 936 759 709 623 447 286 337 251 54 167 196 86 36 12 35 163 120 100 85 46 40 34 34 35 29 13 1 0 0 0 0 0 0 0 0 0 0 0 0
2115 1960 1493 1398 1285 1140 985 793 593 398 338 340 166 181 217 245 284 122 29 128 45 61 58 29 27 14 11 22 7 15 12 1 0 0 0 0 0 0 0 0 0 0 0
2442 2195 2012 1717 1551 1506 1369 1113 888 711 639 504 298 240 172 198 191 93 228 128 99 79 68 21 6 2 2 7 0 0 15 14 0 0 0 0 0 0 0 0 0 0 0
2217 2637 2721 2670 2398 2138 1953 1713 1463 1298 1160 1061 885 497 335 233 260 221 273 133 53 90 74 6 3 0 31 55 0 12 28 24 0 0 2 0 0 0 0 0 0 0 0
2799 2532 2485 2624 2701 2620 2405 2196 2060 2024 1710 1354 1380 990 520 300 430 363 143 124 48 61 82 51 25 8 60 70 101 98 78 54 34 40 15 7 3 0 0 0 0 0 0
2981 2906 2880 2838 2741 2699 2785 2775 2575 2284 2372 1583 1379 930 454 514 494 230 146 37 94 104 114 95 104 102 100 91 51 40 70 76 8 0 0 8 0 0 0 0 0 0 0
2953 2971 3048 3123 3192 3222 3279 3243 2972 2653 2065 1264 799 648 426 479 511 235 83 18 72 75 59 98 88 35 36 31 17 0 0 0 1 0 0 0 0 0 0 0 0 0 0

GFSMA_con_mucape_030.txt.gz
CAPE
760 734 602 702 728 741 945 1062 1201 1003 635 949 635 172 323 175 306 244 158 756 1468 1916 1561 1594 1864 1629 1566 1551 1490 1509 1300 1253 1398 1144 1229 1294 1073 1090 673 531 641 697 648
793 887 555 734 1093 1040 1176 1135 1067 932 931 924 1163 760 212 200 271 515 502 238 1679 1828 2031 1543 1503 1612 1593 1823 1603 1597 1774 1425 1081 1574 901 1506 1428 934 653 686 836 968 1032
673 946 602 776 937 1066 1050 1116 789 662 494 162 18 0 14 109 102 772 683 336 777 1343 1791 1983 1756 1658 1576 1670 1837 1827 2004 2080 1212 1042 1470 1514 1385 1414 1180 778 1013 1150 1207
670 839 721 787 895 976 1083 998 717 371 229 117 24 2 0 11 9 371 686 559 835 925 1011 1566 2320 1931 1281 1274 1336 1973 2085 1716 1614 2047 1924 1713 1525 1432 1676 1706 1292 1163 1116
620 824 787 863 889 914 918 869 548 235 84 0 0 9 14 28 24 78 294 626 417 962 632 813 1462 1566 1312 1226 1382 1393 1438 1601 1612 1910 2094 2136 1777 1825 2147 2007 1926 1852 1546
854 875 864 916 987 893 888 893 405 123 0 0 0 0 6 18 36 50 49 21 144 922 711 735 1135 975 1167 1150 1638 1627 1397 1326 1733 1963 1762 1996 2073 1999 1931 2002 2023 1969 1770
995 853 906 939 900 971 1000 742 231 102 0 0 0 0 5 5 26 39 49 236 706 719 698 646 740 1254 1187 1187 1170 1418 1539 1554 1352 1446 1450 1306 1348 2012 1883 1818 1868 1907 1877
954 942 1017 1011 811 897 852 504 202 92 0 0 0 0 0 7 19 23 44 271 497 581 608 624 702 674 646 1034 1295 1414 1590 1443 1424 1334 1231 1027 841 697 684 540 641 907 1105
1020 1035 1041 1079 939 866 825 406 298 123 0 0 0 0 0 0 4 10 32 156 241 345 220 308 386 221 115 269 38 329 572 786 654 472 311 162 68 49 81 88 122 188 301
833 1079 1244 1128 1028 920 847 703 519 185 0 0 0 0 0 0 0 0 9 29 147 147 50 24 188 365 38 0 0 0 0 0 0 0 0 0 0 0 0 0 0 0 6
958 971 867 1097 1093 1036 839 764 564 250 0 1 0 0 0 0 10 0 0 0 0 1 0 0 1 224 135 12 0 0 0 0 0 0 0 0 0 0 0 0 0 0 0
1146 1259 1272 1218 1186 889 711 761 651 347 3 0 0 1 0 0 2 9 0 0 0 0 0 0 0 0 206 82 21 7 53 20 0 0 0 0 0 0 0 0 0 0 0
1007 1161 1234 1170 1230 924 683 838 598 391 0 1 0 5 1 0 0 0 0 0 0 0 0 0 0 0 0 124 71 63 38 71 26 0 0 0 0 0 0 0 0 0 0
705 931 1189 1280 1305 1043 722 574 412 150 0 0 0 0 0 0 0 0 0 0 0 0 0 0 0 0 0 0 7 38 50 17 44 3 0 0 0 4 35 47 57 55 40
678 757 1012 1332 1345 1136 848 574 417 171 9 1 0 0 0 0 0 0 0 0 0 0 0 0 0 0 0 0 0 24 57 37 29 32 0 0 0 8 27 50 65 54 87
841 782 1123 1196 1254 1212 1012 755 638 366 86 24 1 0 0 0 0 0 0 0 0 0 0 0 0 0 0 0 0 28 0 5 27 31 9 0 0 0 17 37 47 52 54
950 711 996 1092 1194 1304 1148 940 777 531 173 4 0 0 0 0 0 0 0 0 0 0 0 2 2 13 2 12 2 0 2 12 0 0 0 0 0 0 0 0 0 0 0
956 672 905 1095 1064 1308 1146 1074 985 682 229 5 7 0 0 0 0 0 0 0 0 0 0 42 5 4 13 8 0 3 0 0 0 0 0 0 0 0 0 0 0 0 0
987 866 1194 1177 1322 1269 1063 1074 1097 767 352 270 130 8 0 0 5 0 0 0 0 0 0 0 10 11 18 15 7 0 4 0 7 1 3 0 0 0 0 0 0 0 0
1028 819 1162 1238 1326 1264 1008 987 992 850 588 561 493 313 93 35 54 54 34 1 0 2 0 7 17 23 20 26 10 21 14 7 12 0 1 0 0 0 0 0 0 0 0
1081 1063 953 1401 1380 1292 1188 978 887 885 696 750 716 624 533 463 298 125 69 10 3 0 1 14 15 11 9 0 19 9 13 2 1 0 1 0 0 0 0 0 0 0 0
1259 1203 1074 1191 1544 1272 1285 1361 1258 1292 968 1037 896 883 960 815 465 318 187 103 87 53 17 18 29 33 55 24 6 12 10 7 0 0 0 32 26 2 3 0 0 0 0
1313 1287 1274 1099 1142 1463 1394 1394 1397 1433 1443 1503 1382 1259 1287 980 731 434 293 146 75 93 93 22 64 49 103 99 23 0 0 1 0 19 8 13 2 0 0 0 0 0 0
1282 1378 1373 1396 1243 1267 1571 1761 1705 1653 1652 1651 1507 1527 1796 1442 974 803 426 66 4 42 52 86 69 116 83 17 21 25 7 1 10 9 0 9 0 0 0 0 0 0 0
1442 1466 1426 1508 1558 1464 1366 1529 1714 1775 1817 1863 1702 2114 1975 1751 1255 871 580 164 8 21 64 31 4 11 46 39 51 51 11 2 0 0 0 0 0 0 0 0 0 0 0
1835 1685 1730 1662 1695 1704 1605 1447 1515 1719 1911 1901 2155 2520 2232 1803 1276 1061 606 304 33 98 40 21 22 43 31 12 0 0 3 0 0 0 0 0 0 0 0 0 0 0 0

GFSMA_con_mucape_033.txt.gz
CAPE
1689 1847 1701 1694 1918 1457 1427 2279 1864 1712 1558 1392 1020 675 846 858 800 832 583 686 1363 1491 1171 1303 1580 1515 1542 1438 1413 1076 1254 699 1056 1225 1322 1249 1216 1323 991 531 647 794 598
1857 1855 1778 1542 1802 1919 2093 1736 2094 1599 1677 1574 1609 1016 668 666 841 1023 898 726 1251 1434 1456 1243 1166 1677 1695 1517 1562 1506 1656 1343 1339 1455 1105 1041 1348 1072 749 595 774 955 1032
1699 2034 2079 1714 2014 2011 2314 2142 1540 1393 302 80 105 74 94 477 469 830 1159 637 558 1020 1113 1619 1363 1200 1430 1697 1786 1677 1738 1729 1414 1061 1520 1049 1309 1497 1240 918 760 1152 1283
1615 1877 1993 1698 1709 2173 2641 1890 1234 1173 439 97 18 107 256 140 47 640 883 938 885 680 825 1050 1601 1332 1285 1184 1410 1786 1836 1852 2009 1871 1685 1224 1731 1507 1490 1572 1298 1228 1111
1631 1729 1827 1772 2007 1840 2183 1689 1368 967 153 57 71 99 224 145 239 275 559 881 1043 1073 749 730 1077 1421 1144 1146 1244 1222 1487 2266 2078 1307 1468 1640 1908 1794 2060 1926 1777 1793 1405
1777 1950 1811 2137 1977 1830 1875 1651 1369 642 85 155 0 166 189 293 285 321 329 209 680 1137 1097 956 908 859 844 765 1485 1318 1192 1184 1531 1698 1840 1878 2011 2046 1865 1838 2025 1954 2034
2015 2201 1913 2103 2078 2007 1976 1764 1111 750 0 158 0 202 198 192 161 171 238 654 1082 1217 1290 1159 1036 1328 1211 975 1164 1360 1481 1495 1330 1257 1619 1664 1451 1377 1349 1219 1207 1493 1567
2239 2230 2137 2044 2088 1921 2099 1741 1036 470 192 124 4 126 58 145 101 57 281 734 1190 842 828 902 982 1230 1088 998 1274 1415 1500 1432 1353 1429 1219 1026 961 673 429 219 355 293 435
2280 2347 2330 2073 2207 2097 1758 1800 1013 584 65 140 15 50 56 45 195 45 175 573 860 499 480 267 269 768 680 38 0 202 667 822 487 198 83 32 0 0 8 0 0 16 51
2176 2267 2343 2145 2320 1953 1938 1720 1092 569 143 111 19 0 93 296 86 71 91 281 442 375 384 95 121 381 281 0 0 0 0 0 0 0 0 0 0 0 0 0 0 0 0
2081 2007 2322 2286 2303 2112 2103 1912 1167 568 204 91 60 1 6 17 111 83 67 65 132 89 169 129 36 127 301 48 0 0 0 0 0 0 0 0 0 0 0 0 0 0 0
1693 2069 2118 2379 2348 2180 2183 1921 1422 854 351 151 166 124 13 0 22 89 69 81 54 18 0 2 24 13 198 171 34 0 2 2 0 0 0 0 0 0 0 0 0 0 0
1573 2182 2516 2489 2281 2309 2150 1822 1451 874 559 240 453 219 144 42 13 3 21 29 20 4 11 6 0 3 11 175 235 78 32 23 2 0 0 0 0 0 0 0 0 0 0
1639 2262 2527 2477 2434 2212 1904 1581 1337 836 523 506 398 311 199 148 15 22 4 12 0 0 0 22 0 0 0 2 67 236 142 10 12 0 0 0 0 0 0 0 5 8 0
1537 2011 2373 2467 2425 2177 1738 1482 1176 879 473 504 380 398 241 124 70 3 0 0 0 0 0 15 0 23 56 73 24 60 232 121 0 0 0 0 0 0 0 13 34 55 108
2055 1871 2096 2187 2336 2255 1807 1427 1059 883 543 326 241 401 360 148 137 86 42 2 0 0 0 0 2 25 5 9 25 159 141 15 7 5 0 0 0 0 0 8 18 28 42
2095 2321 2180 2158 2297 2264 1903 1596 1301 921 627 565 355 416 478 454 142 101 90 48 0 0 0 0 0 44 13 165 49 116 82 195 116 3 0 0 0 0 0 0 0 0 0
2279 2686 2450 2198 2310 2219 1974 1740 1477 984 831 733 634 480 430 221 395 245 111 194 37 23 0 278 115 101 131 266 150 295 56 14 78 10 0 0 1 0 0 0 0 0 0
2461 1981 2242 2344 2139 2174 2056 1742 1783 1388 1062 928 775 630 563 420 321 180 161 128 72 172 233 75 53 99 92 100 130 125 109 52 46 0 0 1 1 0 0 0 0 0 0
2488 2501 2453 2403 2273 2072 2053 1847 1790 1636 1404 1182 956 745 669 630 516 502 365 386 327 264 264 170 92 138 239 178 108 76 50 30 64 0 3 0 0 0 0 0 0 0 0
2426 2480 2515 2508 2231 2066 1850 1952 1842 1728 1589 1410 1134 877 731 721 369 504 554 730 698 474 330 249 217 190 122 97 60 9 68 84 72 144 57 118 73 69 42 1 2 0 0
2523 2523 2465 2491 2447 1998 1372 1175 1541 1932 1889 1759 1651 1204 1227 692 639 679 651 373 621 679 617 338 203 174 351 307 18 114 86 11 109 174 243 131 261 265 219 158 0 0 0
2584 2568 2399 2441 2435 2424 1223 1160 1244 1920 1800 2035 2059 1676 1281 1022 926 1026 892 429 163 55 254 808 604 516 568 339 344 307 138 250 306 489 257 251 316 364 115 9 0 0 0
2762 2758 2558 2456 2490 2421 1322 1106 1353 1577 2188 2146 1848 1893 1699 1489 1302 1312 1222 617 376 346 139 202 724 890 593 425 383 186 383 385 340 282 357 145 34 70 1 0 0 0 0
2670 2809 2788 2778 2633 2650 1327 1260 1209 1368 2040 1846 1711 1564 1617 1603 1527 1658 1308 991 834 781 199 25 56 63 3 0 62 189 317 178 80 40 62 18 2 4 0 0 0 0 0
2675 2588 2821 2957 2353 2755 1603 1367 1353 1580 1989 1738 1935 1729 1707 1766 1661 1979 1251 1117 1133 910 535 91 17 2 0 3 3 180 273 45 8 5 15 0 0 1 0 0 0 0 0

GFSMA_con_mucape_036.txt.gz
CAPE
1911 1834 1725 1556 1632 1760 1114 1272 1114 968 1112 751 321 213 40 56 159 203 641 1152 1398 1232 1043 1247 1349 1291 1496 1551 1371 1443 938 541 964 1259 1262 1190 1220 1201 874 533 552 884 541
2169 1884 1738 1491 1474 1658 1616 643 1095 1077 1392 1093 948 503 48 96 335 259 239 730 1163 1305 984 1083 1481 1671 1713 1561 1538 1319 1395 1229 1202 1495 1138 1320 1256 1126 947 565 579 790 1027
2137 1844 1491 1608 1377 1422 1331 1284 1680 1688 767 400 430 440 32 95 136 279 139 385 606 943 1077 1059 1182 1467 1667 1752 1770 1677 1645 1708 1582 1273 1447 1097 1106 1212 1310 1050 731 865 1155
2082 2177 2037 1652 2025 1374 1128 1247 1589 1085 608 215 59 139 40 59 88 133 88 236 234 660 757 1209 1054 1039 1068 1460 1428 1722 2044 1756 2007 1865 1281 1219 1108 1690 1445 1399 1422 1142 1244
1903 2364 1875 1742 2328 2296 1310 1388 1321 954 323 160 121 71 161 169 174 74 191 273 585 505 615 900 1200 1144 1091 1178 1226 1138 1626 2278 2219 1829 1604 1658 1638 1641 1483 1732 1713 1671 1452
1795 2444 1909 1671 1785 1770 1551 1572 1624 915 135 35 1 16 134 172 185 151 99 105 366 820 648 672 858 922 765 737 1385 1407 1048 1172 1476 1588 1595 1810 1951 1839 1744 1697 1740 1672 1572
2345 2798 2260 2234 2190 1716 1765 1718 1177 1208 166 8 18 49 117 111 202 93 100 163 132 237 277 507 855 550 1035 891 1053 1250 1340 1388 1272 1229 1324 1320 1558 1240 1239 1177 783 587 955
2637 2907 2945 2250 2364 2058 2265 1967 1677 538 258 11 27 69 78 57 68 105 256 119 184 56 42 55 178 405 457 937 1143 1389 1363 1257 1344 1196 1136 1107 840 640 500 499 304 367 251
2679 3055 2698 2636 2452 2449 1846 2247 1882 1284 238 0 123 132 42 146 53 65 364 67 129 78 13 0 71 352 151 0 44 282 734 679 191 0 0 0 0 0 0 0 0 0 4
2548 2646 2861 2919 3031 2226 2048 2206 1829 1431 1177 14 4 6 256 650 60 59 36 280 163 77 59 19 12 0 0 0 0 0 0 0 0 0 0 0 0 0 0 0 0 0 0
2607 2315 2778 2973 2959 2781 2492 2639 2229 2137 1055 128 1 0 36 23 187 108 89 140 208 62 112 48 30 40 31 1 0 0 0 0 0 0 0 0 0 0 0 0 0 0 0
2006 2478 2387 3015 3075 2819 2759 2835 2711 2204 1756 723 33 77 0 0 11 86 72 79 106 149 35 21 26 15 42 22 9 0 0 0 0 0 0 0 0 0 0 0 0 0 0
1376 2631 2630 2785 2836 3193 2833 3016 2884 2092 2062 1385 846 100 40 3 0 0 23 14 8 19 51 25 29 3 4 20 43 8 0 0 2 0 0 0 0 0 0 0 0 0 0
1633 1756 2203 2552 2853 2869 3120 3109 2689 2200 1799 1741 1158 549 117 87 36 0 0 0 0 0 0 19 2 3 0 0 70 414 41 0 0 0 0 0 0 0 0 0 27 54 80
1789 1883 2104 2786 2839 2832 3126 3059 2460 2108 1596 1833 1238 807 306 81 79 26 0 0 0 1 7 103 0 4 0 17 38 138 316 134 59 16 16 12 6 0 0 16 84 127 183
2994 2264 2324 2621 2768 2826 3051 3054 2506 2211 1878 1518 846 596 596 119 125 106 59 7 0 0 0 0 0 3 8 4 85 176 278 75 60 14 0 4 0 0 0 2 11 45 81
3654 3013 3097 2547 2445 2625 2952 3123 2813 2219 2029 1811 1040 644 968 807 118 90 107 63 40 11 0 0 0 272 347 292 30 117 166 134 106 0 0 0 0 0 0 2 4 4 0
3549 3551 3289 3047 2764 2499 2872 3143 2891 2226 2153 1968 1600 1086 885 689 810 913 232 930 404 355 58 220 208 116 587 428 584 626 172 51 43 18 0 0 0 0 0 0 0 0 0
4026 2811 3334 3979 3141 2825 3141 3140 2918 2753 2414 2172 1856 1591 1208 826 1072 477 453 367 286 254 405 155 70 263 60 296 532 600 485 277 100 4 0 0 0 0 0 0 0 0 0
4064 3886 3941 4077 3663 3116 2876 2960 2848 2821 2784 2419 2187 1856 1508 986 1250 941 491 699 626 357 538 307 177 110 252 346 303 158 207 354 90 72 5 0 0 0 0 0 0 0 0
3917 4033 4079 4075 4083 3164 2380 3445 3390 2880 3192 2812 2439 2177 1759 1308 644 839 597 1331 1575 738 277 438 400 226 243 182 331 216 125 92 371 375 135 172 134 167 68 0 3 36 13
4023 4122 4080 4136 4066 3048 1777 1606 2706 3248 3512 3288 3301 2743 2425 1130 749 493 422 508 1276 1730 1640 391 402 599 1107 579 256 243 44 229 90 1201 572 229 105 134 257 294 23 0 0
4112 4183 4141 4188 4183 4087 1996 1376 1632 2898 3297 3650 3704 2923 2319 1889 1242 1349 773 709 811 880 653 1538 1251 1322 988 934 903 571 590 329 293 484 579 278 135 192 121 14 0 0 0
4106 4166 4177 4237 4221 4090 2611 1692 1433 2832 3519 3842 3579 3356 3411 3065 2426 1636 1591 959 942 1008 799 606 1067 1072 1564 986 858 667 582 611 481 470 518 284 65 18 7 3 0 0 0
3882 3796 3602 4297 4312 4162 2608 2215 1579 2431 2696 3806 3753 3452 3605 3520 2477 1487 1748 1746 1270 1156 798 389 281 252 516 255 396 355 259 414 168 235 408 97 19 11 7 0 0 0 0
3559 3220 3372 4215 3754 4292 2888 2240 1913 2304 2610 2479 3667 3970 2165 2752 2264 1660 1641 2465 1978 1756 1488 811 500 295 214 139 0 275 234 155 94 38 58 0 0 4 6 0 0 0 0